Location: Mohawk View
(42.7837°N, 73.7885°W)
Time: 17:01:00
(UTC+00:00)

Cosmos 1943 Rocket - Pass Details

Date: 17 June 2021
Orbit: 813 x 843 km, 71.0° (Epoch: 02 August)

Event Time Altitude Azimuth Distance (km) Brightness Sun altitude
Rises 07:25:35 0° 314° (NW) 3,343 5.4 -15.4°
Reaches altitude 10° 07:29:42 10° 284° (WNW) 2,408 4.4 -15.0°
Maximum altitude 07:31:36 12° 264° (W) 2,279 4.1 -14.8°
Enters shadow 07:31:55 12° 260° (W) 2,283 4.0 -14.7°
